Location: *
(41.7492°S, 135.4150°W)
Time: 19:41:07
(UTC+00:00)

AO-27 - Visible Passes

Search period start: 29 June 2022 00:00
Search period end: 09 July 2022 00:00
Orbit: 785 x 797 km, 98.9° (Epoch: 29 June)

Date Brightness Start Highest point End Pass type
(mag) Time Alt. Az. Time Alt. Az. Time Alt. Az.
29 Jun 8.1 15:46:45 10° NNE 15:51:58 67° ESE 15:57:15 10° S visible
30 Jun 9.1 15:18:06 10° NE 15:22:54 37° ESE 15:27:45 10° S visible
01 Jul 10.0 14:50:04 10° ENE 14:53:58 21° ESE 14:57:53 10° SSE visible
02 Jul 10.4 14:23:10 10° E 14:25:10 12° ESE 14:27:11 10° SE visible
03 Jul 8.8 15:29:39 10° NE 15:34:40 46° ESE 15:39:44 10° S visible
04 Jul 9.7 15:01:22 10° ENE 15:05:42 26° ESE 15:10:02 10° S visible
05 Jul 10.3 14:33:53 10° E 14:36:50 15° ESE 14:39:47 10° SSE visible
06 Jul 8.4 15:41:18 10° NNE 15:46:27 59° ESE 15:51:40 10° S visible
07 Jul 9.4 15:12:46 10° NE 15:17:25 33° ESE 15:22:06 10° S visible
08 Jul 10.1 14:44:55 10° ENE 14:48:31 19° ESE 14:52:07 10° SSE visible
